Time,TemperatureF,DewpointF,PressureIn,WindDirection,WindDirectionDegrees,WindSpeedMPH,WindSpeedGustMPH,Humidity,HourlyPrecipIn,Conditions,Clouds,dailyrainin,SolarRadiationWatts/m^2,SoftwareType,DateUTC
2013-02-17 00:01:00,23.0,15.0,-100.00,North,9,0.0,3.0,70,0.00,,,0.00,0.000000,,2013-02-17 08:01:00,
2013-02-17 00:11:00,23.0,15.0,-100.00,North,9,0.0,3.0,70,0.00,,,0.00,0.000000,,2013-02-17 08:11:00,
2013-02-17 00:21:00,23.0,15.0,-100.00,North,9,0.0,3.0,70,0.00,,,0.00,0.000000,,2013-02-17 08:21:00,
2013-02-17 00:31:00,23.0,15.0,-100.00,North,9,0.0,3.0,70,0.00,,,0.00,0.000000,,2013-02-17 08:31:00,
2013-02-17 01:01:00,23.0,16.0,-100.00,SSE,157,0.0,4.0,75,0.00,,,0.00,0.000000,,2013-02-17 09:01:00,
2013-02-17 01:11:00,23.0,16.0,-100.00,SSE,157,0.0,4.0,75,0.00,,,0.00,0.000000,,2013-02-17 09:11:00,
2013-02-17 01:21:00,23.0,16.0,-100.00,SSE,157,0.0,4.0,75,0.00,,,0.00,0.000000,,2013-02-17 09:21:00,
2013-02-17 01:31:00,23.0,16.0,-100.00,SSE,157,0.0,4.0,75,0.00,,,0.00,0.000000,,2013-02-17 09:31:00,
2013-02-17 02:01:00,25.0,17.0,-100.00,North,7,1.0,4.0,71,0.00,,,0.00,0.000000,,2013-02-17 10:01:00,
2013-02-17 02:11:00,25.0,17.0,-100.00,North,7,1.0,4.0,71,0.00,,,0.00,0.000000,,2013-02-17 10:11:00,
2013-02-17 02:21:00,25.0,17.0,-100.00,North,7,1.0,4.0,71,0.00,,,0.00,0.000000,,2013-02-17 10:21:00,
2013-02-17 02:31:00,25.0,17.0,-100.00,North,7,1.0,4.0,71,0.00,,,0.00,0.000000,,2013-02-17 10:31:00,
2013-02-17 03:01:00,26.0,14.0,-100.00,North,350,0.0,5.0,61,0.00,,,0.00,0.000000,,2013-02-17 11:01:00,
2013-02-17 03:11:00,26.0,14.0,-100.00,North,350,0.0,5.0,61,0.00,,,0.00,0.000000,,2013-02-17 11:11:00,
2013-02-17 03:21:00,26.0,14.0,-100.00,North,350,0.0,5.0,61,0.00,,,0.00,0.000000,,2013-02-17 11:21:00,
2013-02-17 03:32:00,26.0,14.0,-100.00,North,350,0.0,5.0,61,0.00,,,0.00,0.000000,,2013-02-17 11:32:00,
2013-02-17 04:03:00,27.0,16.0,-100.00,NNE,13,0.0,4.0,63,0.00,,,0.00,0.000000,,2013-02-17 12:03:00,
2013-02-17 04:11:00,27.0,16.0,-100.00,NNE,13,0.0,4.0,63,0.00,,,0.00,0.000000,,2013-02-17 12:11:00,
2013-02-17 04:22:00,27.0,16.0,-100.00,NNE,13,0.0,4.0,63,0.00,,,0.00,0.000000,,2013-02-17 12:22:00,
2013-02-17 04:31:00,27.0,16.0,-100.00,NNE,13,0.0,4.0,63,0.00,,,0.00,0.000000,,2013-02-17 12:31:00,
2013-02-17 05:02:00,29.0,14.0,-100.00,North,4,0.0,4.0,53,0.00,,,0.00,0.000000,,2013-02-17 13:02:00,
2013-02-17 05:11:00,29.0,14.0,-100.00,North,4,0.0,4.0,53,0.00,,,0.00,0.000000,,2013-02-17 13:11:00,
2013-02-17 05:21:00,29.0,14.0,-100.00,North,4,0.0,4.0,53,0.00,,,0.00,0.000000,,2013-02-17 13:21:00,
2013-02-17 05:32:00,29.0,14.0,-100.00,North,4,0.0,4.0,53,0.00,,,0.00,0.000000,,2013-02-17 13:32:00,
2013-02-17 06:01:00,26.0,13.0,-100.00,North,10,2.0,4.0,57,0.00,,,0.00,0.000000,,2013-02-17 14:01:00,
2013-02-17 06:11:00,26.0,13.0,-100.00,North,10,2.0,4.0,57,0.00,,,0.00,0.000000,,2013-02-17 14:11:00,
2013-02-17 06:21:00,26.0,13.0,-100.00,North,10,2.0,4.0,57,0.00,,,0.00,0.000000,,2013-02-17 14:21:00,
2013-02-17 06:32:00,26.0,13.0,-100.00,North,10,2.0,4.0,57,0.00,,,0.00,0.000000,,2013-02-17 14:32:00,
2013-02-17 07:01:00,25.0,12.0,-100.00,NNE,12,3.0,4.0,57,0.00,,,-99.99,0.000000,,2013-02-17 15:01:00,
2013-02-17 07:11:00,25.0,12.0,-100.00,NNE,12,3.0,4.0,57,0.00,,,-99.99,0.000000,,2013-02-17 15:11:00,
2013-02-17 07:21:00,25.0,12.0,-100.00,NNE,12,3.0,4.0,57,0.00,,,-99.99,0.000000,,2013-02-17 15:21:00,
2013-02-17 07:31:00,25.0,12.0,-100.00,NNE,12,3.0,4.0,57,0.00,,,-99.99,0.000000,,2013-02-17 15:31:00,
2013-02-17 08:01:00,30.0,14.0,-100.00,ENE,73,0.0,5.0,50,0.00,,,0.00,16.000000,,2013-02-17 16:01:00,
2013-02-17 08:11:00,30.0,14.0,-100.00,ENE,73,0.0,5.0,50,0.00,,,0.00,16.000000,,2013-02-17 16:11:00,
2013-02-17 08:21:00,30.0,14.0,-100.00,ENE,73,0.0,5.0,50,0.00,,,0.00,16.000000,,2013-02-17 16:21:00,
2013-02-17 08:31:00,30.0,14.0,-100.00,ENE,73,0.0,5.0,50,0.00,,,0.00,16.000000,,2013-02-17 16:31:00,
2013-02-17 08:52:00,41.0,7.0,-100.00,SSW,196,3.0,8.0,24,-99.99,,,0.00,63.000000,,2013-02-17 16:52:00,
2013-02-17 09:02:00,41.0,7.0,-100.00,SSW,196,3.0,8.0,24,-99.99,,,0.00,63.000000,,2013-02-17 17:02:00,
2013-02-17 09:11:00,41.0,7.0,-100.00,SSW,196,3.0,8.0,24,-99.99,,,0.00,63.000000,,2013-02-17 17:11:00,
2013-02-17 09:21:00,41.0,7.0,-100.00,SSW,196,3.0,8.0,24,-99.99,,,0.00,63.000000,,2013-02-17 17:21:00,
2013-02-17 09:31:00,41.0,7.0,-100.00,SSW,196,3.0,8.0,24,-99.99,,,0.00,63.000000,,2013-02-17 17:31:00,
2013-02-17 10:01:00,46.0,4.0,-100.00,SSW,202,5.0,12.0,17,0.00,,,0.00,536.000000,,2013-02-17 18:01:00,
2013-02-17 10:11:00,46.0,4.0,-100.00,SSW,202,5.0,12.0,17,0.00,,,0.00,536.000000,,2013-02-17 18:11:00,
2013-02-17 10:21:00,46.0,4.0,-100.00,SSW,202,5.0,12.0,17,0.00,,,0.00,536.000000,,2013-02-17 18:21:00,
2013-02-17 10:33:00,46.0,4.0,-100.00,SSW,202,5.0,12.0,17,0.00,,,0.00,536.000000,,2013-02-17 18:33:00,
2013-02-17 11:01:00,48.0,5.0,-100.00,SSW,193,5.0,12.0,17,0.00,,,0.00,765.000000,,2013-02-17 19:01:00,
2013-02-17 11:11:00,48.0,5.0,-100.00,SSW,193,5.0,12.0,17,0.00,,,0.00,765.000000,,2013-02-17 19:11:00,
2013-02-17 11:21:00,48.0,5.0,-100.00,SSW,193,5.0,12.0,17,0.00,,,0.00,765.000000,,2013-02-17 19:21:00,
2013-02-17 11:31:00,48.0,5.0,-100.00,SSW,193,5.0,12.0,17,0.00,,,0.00,765.000000,,2013-02-17 19:31:00,
2013-02-17 12:01:00,50.0,8.0,-100.00,SSW,205,5.0,11.0,18,0.00,,,0.00,887.000000,,2013-02-17 20:01:00,
2013-02-17 12:11:00,50.0,8.0,-100.00,SSW,205,5.0,11.0,18,0.00,,,0.00,887.000000,,2013-02-17 20:11:00,
2013-02-17 12:21:00,50.0,8.0,-100.00,SSW,205,5.0,11.0,18,0.00,,,0.00,887.000000,,2013-02-17 20:21:00,
2013-02-17 12:31:00,50.0,8.0,-100.00,SSW,205,5.0,11.0,18,0.00,,,0.00,887.000000,,2013-02-17 20:31:00,
2013-02-17 13:01:00,49.0,7.0,-100.00,SE,141,6.0,12.0,18,0.00,,,0.00,927.000000,,2013-02-17 21:01:00,
2013-02-17 13:11:00,49.0,7.0,-100.00,SE,141,6.0,12.0,18,0.00,,,0.00,927.000000,,2013-02-17 21:11:00,
2013-02-17 13:21:00,49.0,7.0,-100.00,SE,141,6.0,12.0,18,0.00,,,0.00,927.000000,,2013-02-17 21:21:00,
2013-02-17 13:31:00,49.0,7.0,-100.00,SE,141,6.0,12.0,18,0.00,,,0.00,927.000000,,2013-02-17 21:31:00,
2013-02-17 14:01:00,51.0,10.0,-100.00,SSW,195,6.0,15.0,19,0.00,,,0.00,881.000000,,2013-02-17 22:01:00,
2013-02-17 14:12:00,51.0,10.0,-100.00,SSW,195,6.0,15.0,19,0.00,,,0.00,881.000000,,2013-02-17 22:12:00,
2013-02-17 14:21:00,51.0,10.0,-100.00,SSW,195,6.0,15.0,19,0.00,,,0.00,881.000000,,2013-02-17 22:21:00,
2013-02-17 14:32:00,51.0,10.0,-100.00,SSW,195,6.0,15.0,19,0.00,,,0.00,881.000000,,2013-02-17 22:32:00,
2013-02-17 15:02:00,50.0,6.0,-100.00,SSE,161,5.0,16.0,16,0.00,,,0.00,768.000000,,2013-02-17 23:02:00,
2013-02-17 15:11:00,50.0,6.0,-100.00,SSE,161,5.0,16.0,16,0.00,,,0.00,768.000000,,2013-02-17 23:11:00,
2013-02-17 15:21:00,50.0,6.0,-100.00,SSE,161,5.0,16.0,16,0.00,,,0.00,768.000000,,2013-02-17 23:21:00,
2013-02-17 15:31:00,50.0,6.0,-100.00,SSE,161,5.0,16.0,16,0.00,,,0.00,768.000000,,2013-02-17 23:31:00,
2013-02-17 16:01:00,49.0,13.0,-100.00,SSW,192,5.0,13.0,23,0.00,,,0.00,588.000000,,2013-02-18 00:01:00,
2013-02-17 16:11:00,49.0,13.0,-100.00,SSW,192,5.0,13.0,23,0.00,,,0.00,588.000000,,2013-02-18 00:11:00,
2013-02-17 16:22:00,49.0,13.0,-100.00,SSW,192,5.0,13.0,23,0.00,,,0.00,588.000000,,2013-02-18 00:22:00,
2013-02-17 16:31:00,49.0,13.0,-100.00,SSW,192,5.0,13.0,23,0.00,,,0.00,588.000000,,2013-02-18 00:31:00,
2013-02-17 17:01:00,47.0,11.0,-100.00,SSW,201,2.0,12.0,23,0.00,,,0.00,332.000000,,2013-02-18 01:01:00,
2013-02-17 17:11:00,47.0,11.0,-100.00,SSW,201,2.0,12.0,23,0.00,,,0.00,332.000000,,2013-02-18 01:11:00,
2013-02-17 17:21:00,47.0,11.0,-100.00,SSW,201,2.0,12.0,23,0.00,,,0.00,332.000000,,2013-02-18 01:21:00,
2013-02-17 17:31:00,47.0,11.0,-100.00,SSW,201,2.0,12.0,23,0.00,,,0.00,332.000000,,2013-02-18 01:31:00,
2013-02-17 18:01:00,38.0,18.0,-100.00,ESE,110,0.0,7.0,44,0.00,,,0.00,21.000000,,2013-02-18 02:01:00,
2013-02-17 18:11:00,38.0,18.0,-100.00,ESE,110,0.0,7.0,44,0.00,,,0.00,21.000000,,2013-02-18 02:11:00,
2013-02-17 18:21:00,38.0,18.0,-100.00,ESE,110,0.0,7.0,44,0.00,,,0.00,21.000000,,2013-02-18 02:21:00,
2013-02-17 18:31:00,38.0,18.0,-100.00,ESE,110,0.0,7.0,44,0.00,,,0.00,21.000000,,2013-02-18 02:31:00,
2013-02-17 19:01:00,31.0,21.0,-100.00,NNE,14,0.0,3.0,65,0.00,,,0.00,0.000000,,2013-02-18 03:01:00,
2013-02-17 19:11:00,31.0,21.0,-100.00,NNE,14,0.0,3.0,65,0.00,,,0.00,0.000000,,2013-02-18 03:11:00,
2013-02-17 19:21:00,31.0,21.0,-100.00,NNE,14,0.0,3.0,65,0.00,,,0.00,0.000000,,2013-02-18 03:21:00,
2013-02-17 19:31:00,31.0,21.0,-100.00,NNE,14,0.0,3.0,65,0.00,,,0.00,0.000000,,2013-02-18 03:31:00,
2013-02-17 20:01:00,29.0,21.0,-100.00,North,10,1.0,5.0,71,0.00,,,0.00,0.000000,,2013-02-18 04:01:00,
2013-02-17 20:11:00,29.0,21.0,-100.00,North,10,1.0,5.0,71,0.00,,,0.00,0.000000,,2013-02-18 04:11:00,
2013-02-17 20:21:00,29.0,21.0,-100.00,North,10,1.0,5.0,71,0.00,,,0.00,0.000000,,2013-02-18 04:21:00,
2013-02-17 20:32:00,29.0,21.0,-100.00,North,10,1.0,5.0,71,0.00,,,0.00,0.000000,,2013-02-18 04:32:00,
2013-02-17 21:01:00,26.0,19.0,-100.00,North,6,2.0,5.0,73,0.00,,,0.00,0.000000,,2013-02-18 05:01:00,
2013-02-17 21:11:00,26.0,19.0,-100.00,North,6,2.0,5.0,73,0.00,,,0.00,0.000000,,2013-02-18 05:11:00,
2013-02-17 21:21:00,26.0,19.0,-100.00,North,6,2.0,5.0,73,0.00,,,0.00,0.000000,,2013-02-18 05:21:00,
2013-02-17 21:31:00,26.0,19.0,-100.00,North,6,2.0,5.0,73,0.00,,,0.00,0.000000,,2013-02-18 05:31:00,
2013-02-17 22:02:00,25.0,17.0,-100.00,North,4,0.0,4.0,71,0.00,,,0.00,0.000000,,2013-02-18 06:02:00,
2013-02-17 22:11:00,25.0,17.0,-100.00,North,4,0.0,4.0,71,0.00,,,0.00,0.000000,,2013-02-18 06:11:00,
2013-02-17 22:21:00,25.0,17.0,-100.00,North,4,0.0,4.0,71,0.00,,,0.00,0.000000,,2013-02-18 06:21:00,
2013-02-17 22:31:00,25.0,17.0,-100.00,North,4,0.0,4.0,71,0.00,,,0.00,0.000000,,2013-02-18 06:31:00,
2013-02-17 23:01:00,23.0,17.0,-100.00,NNE,12,1.0,4.0,76,0.00,,,0.00,0.000000,,2013-02-18 07:01:00,
2013-02-17 23:11:00,23.0,17.0,-100.00,NNE,12,1.0,4.0,76,0.00,,,0.00,0.000000,,2013-02-18 07:11:00,
2013-02-17 23:21:00,23.0,17.0,-100.00,NNE,12,1.0,4.0,76,0.00,,,0.00,0.000000,,2013-02-18 07:21:00,
2013-02-17 23:31:00,23.0,17.0,-100.00,NNE,12,1.0,4.0,76,0.00,,,0.00,0.000000,,2013-02-18 07:31:00,